Find Local Weather

World > North America > United States > Florida

San Mateo, Florida Regional Weather

Lat: 29.61N, Lon: 81.58W
Wx Zone: FLZ037
Feedback
Expires:201805231900;;415181
ASUS42 KTBW 231817
RWRFL 
FLORIDA REGIONAL WEATHER ROUNDUP
NATIONAL WEATHER SERVICE TAMPA BAY RUSKIN FL
200 PM EDT WED MAY 23 2018

NOTE: "FAIR" INDICATES FEW OR NO CLOUDS BELOW 12,000 FEET WITH NO
SIGNIFICANT WEATHER AND/OR OBSTRUCTIONS TO VISIBILITY.


FLZ011-016>038-118-127-128-134-139-239-231900-
NORTH FLORIDA
  
CITY           SKY/WX    TMP DP  RH WIND       PRES   REMARKS
MARIANNA       FAIR      85  73  67 SE5       30.05F                  
TALLAHASSEE    FAIR      83  71  67 S10       30.07F                  
PERRY          CLOUDY    85  71  63 SW12      30.09F                  
LIVE OAK       PTSUNNY   84  68  58 CALM      30.09F                  
CROSS CITY     LGT RAIN  78  76  94 W8        30.10F                  
LAKE CITY      PTSUNNY   82  70  65 SE7       30.10F                  
GAINESVILLE    PTSUNNY   85  69  58 SE5       30.11F                  
WILLISTON      SUNNY     88  73  62 CALM      30.09F HX  96           
PALATKA        PTSUNNY   86  64  48 CALM      30.10F                  
MAYPORT NAS    FAIR      84  72  67 SE14      30.10F                  
JACKSONVILLE   FAIR      85  67  54 S7        30.08F                  
JAX NAS        PTSUNNY   86  64  47 S7        30.10F                  
JAX CECIL      MOSUNNY   86  72  62 S6        30.09F                  
FERNANDINA BEA FAIR      82  71  70 SE14      30.09F                  
ST AUGUSTINE   FAIR      82  72  71 SE12      30.11F                  
PALM COAST     MOSUNNY   84  70  61 E12       30.10F                  

STATION/POSITION SKY/WX   TEMP    WIND        PRES    WAVE   SWELL
                          AIR SEA DIR/SP/G            HT/PER HT/PER
                          (F)     (DEG/KT/KT) (MB)    (FT/S) (FT/S)
SHELL POINT                80     170/ 10/ 13 1018.9
KEATON BEACH               79     200/  9/ 11 1019.3F
CEDAR KEY                  79     230/  4/  6 1019.4F
FERNANDINA                 84 78  130/  8/ 11 1020.2F
30.7N   81.3W                 77                N/A     2/ 8
MAYPORT                    80 79  120/ 12/ 15 1019.6F
31.4N   80.9W              76 77  180/ 12/ 14 1019.3F   3/ 8   2/ 8
ST AUGUSTINE               77 79  120/ 10/ 11 1019.7F

$$

SKY/WX - Weather  TMP - Temperature  DP - Dewpoint  RH - Relative Humidity
WIND - Wind Direction/Speed PRES - Barometric Pressure